Cape Girardeau, MO

10:29 AM CDT on June 25, 2017 (GMT -0500)
Cape Girardeau Regional

Weather History for KCGI - January, 2011

Change the Weather History Date:

Sunday, January 16, 2011

  Actual Average Record
Temperature  
Mean Temperature 30 °F 33 °F  
Max Temperature 36 °F 42 °F 63 °F (1990)
Min Temperature 23 °F 24 °F -12 °F (1982)
Degree Days  
Heating Degree Days 35 32  
Month to date heating degree days 554 512  
Since 1 July heating degree days 2314 2263  
Cooling Degree Days 0 0  
Month to date cooling degree days 0 0  
Year to date cooling degree days 0 0  
Moisture  
Dew Point 20 °F    
Average Humidity 67    
Maximum Humidity 81    
Minimum Humidity 52    
Precipitation  
Precipitation 0.00 in 0.10 in 1.10 in (1978)
Month to date precipitation 0.06 1.78  
Year to date precipitation 0.06 1.78  
Sea Level Pressure  
Sea Level Pressure 30.20 in    
Wind  
Wind Speed 6 mph (NNE)    
Max Wind Speed 13 mph    
Max Gust Speed 16 mph    
Visibility 7 miles    
Events      
T = Trace of Precipitation, MM = Missing Value Source: NWS Daily Summary

Daily Weather History Graph

Daily Weather History Graph

Search for Another Location

Airport or City:

Trip Planner

Search our weather history database for the weather conditions in past years. The results will help you decide how hot, cold, wet, or windy it might be!

Date:

Astronomy

Jan. 16, 2011 Rise Set
Actual Time 7:10 AM CST 5:05 PM CST
Civil Twilight 6:42 AM CST 5:33 PM CST
Nautical Twilight 6:10 AM CST 6:05 PM CST
Astronomical Twilight 5:39 AM CST 6:37 PM CST
Moon 1:57 PM CST (1/16) 4:13 AM CST (1/16)
Length of Visible Light 10h 51m
Length of Day
9h 54m
Waxing Gibbous, 88% of the Moon is Illuminated
Jan 16
Waxing Gibbous
Jan 19
Full
Jan 26
Last Quarter
Feb 2
New
Feb 11
First Quarter

Hourly Weather History & Observations

Time (CST) Temp. Windchill Dew Point Humidity Pressure Visibility Wind Dir Wind Speed Gust Speed Precip Events Conditions
12:53 AM 27.0 °F 21.6 °F 21.0 °F 78% 30.21 in 6.0 mi NNE 4.6 mph - N/A   Haze
1:53 AM 26.6 °F 20.0 °F 21.2 °F 80% 30.21 in 6.0 mi North 5.8 mph - N/A   Haze
2:53 AM 28.0 °F 20.8 °F 21.9 °F 78% 30.21 in 6.0 mi North 6.9 mph - N/A   Haze
3:53 AM 26.1 °F 18.4 °F 19.9 °F 78% 30.23 in 7.0 mi North 6.9 mph - N/A   Clear
4:53 AM 25.0 °F 18.1 °F 19.9 °F 81% 30.24 in 7.0 mi North 5.8 mph - N/A   Clear
5:53 AM 25.0 °F 16.3 °F 19.0 °F 78% 30.25 in 8.0 mi North 8.1 mph - N/A   Scattered Clouds
6:06 AM 24.8 °F 16.1 °F 19.4 °F 80% 30.24 in 8.0 mi NNE 8.1 mph - N/A   Mostly Cloudy
6:31 AM 24.8 °F 19.1 °F 19.4 °F 80% 30.24 in 8.0 mi NNE 4.6 mph - N/A   Scattered Clouds
6:53 AM 23.0 °F 14.7 °F 18.0 °F 81% 30.25 in 8.0 mi NNE 6.9 mph - N/A   Clear
7:53 AM 24.1 °F 16.0 °F 19.0 °F 81% 30.26 in 6.0 mi North 6.9 mph - N/A   Haze
8:53 AM 27.0 °F 18.0 °F 19.0 °F 72% 30.26 in 7.0 mi NNE 9.2 mph - N/A   Clear
9:53 AM 28.9 °F 20.4 °F 19.9 °F 69% 30.26 in 6.0 mi NE 9.2 mph - N/A   Haze
10:53 AM 30.9 °F 25.2 °F 19.9 °F 64% 30.25 in 7.0 mi NNE 5.8 mph - N/A   Clear
11:53 AM 33.1 °F 28.7 °F 19.9 °F 59% 30.23 in 7.0 mi NNE 4.6 mph - N/A   Clear
12:53 PM 35.1 °F 31.0 °F 19.9 °F 54% 30.20 in 8.0 mi NNE 4.6 mph - N/A   Clear
1:53 PM 35.1 °F 32.2 °F 19.9 °F 54% 30.18 in 8.0 mi NE 3.5 mph - N/A   Clear
2:53 PM 35.1 °F 28.6 °F 19.9 °F 54% 30.17 in 7.0 mi NE 8.1 mph - N/A   Clear
3:53 PM 35.1 °F 28.6 °F 19.9 °F 54% 30.17 in 8.0 mi NE 8.1 mph - N/A   Clear
4:53 PM 33.1 °F 26.1 °F 19.9 °F 59% 30.15 in 8.0 mi NE 8.1 mph - N/A   Clear
5:53 PM 30.0 °F 23.2 °F 21.0 °F 69% 30.15 in 8.0 mi NNE 6.9 mph - N/A   Clear
6:53 PM 28.4 °F 21.2 °F 21.2 °F 74% 30.16 in 7.0 mi NE 6.9 mph - N/A   Clear
7:53 PM 27.0 °F 21.6 °F 21.0 °F 78% 30.17 in 7.0 mi NE 4.6 mph - N/A   Clear
8:53 PM 27.0 °F - 19.9 °F 75% 30.16 in 6.0 mi Calm Calm - N/A   Haze
9:53 PM 26.1 °F 21.9 °F 19.9 °F 78% 30.14 in 6.0 mi East 3.5 mph - N/A   Haze
10:53 PM 26.1 °F 21.9 °F 19.9 °F 78% 30.12 in 6.0 mi ENE 3.5 mph - N/A   Haze
11:53 PM 24.1 °F 18.2 °F 19.0 °F 81% 30.09 in 5.0 mi ENE 4.6 mph - N/A   Haze